Flag for Mexico Weather past 2 weeks in Ojinaga, Chihuahua, Mexico

Now
68 °F

Scattered clouds.


Feels Like: 68 °F
Forecast: 46 / 78 °F
Wind: 10 mph from Southeast

Location: Marfa Municipal Airport

Current Time: Jan 28, 2015 at 5:24:51 PM

Latest Report: Jan 28, 2015 at 4:55 PM


Visibility: 10 mi

Pressure: 30.16 "Hg

Humidity: 43%

Dew point: 45 °F

Location of OjinagaLocation

Historic Weather in Ojinaga — Graph

°F

Ojinaga temperature yesterday

Maximum temperature yesterday: 70 °F (at 2:35 PM)
Minimum temperature yesterday: 36 °F (at 12:15 AM)
Average temperature yesterday: 50 °F

Past Weeks' High & Low Weather Summary

 TemperatureHumidityPressure
High73 °F (Jan 28, 1:35 PM)100% (Jan 13, 5:15 PM)30.43 "Hg (Jan 13, 5:15 PM)
Low21 °F (Jan 16, 4:35 AM)15% (Jan 20, 2:35 PM)29.96 "Hg (Jan 21, 3:15 PM)
Average40 °F68%30.24 "Hg
* Reported Jan 13 4:15 PM — Jan 28 4:35 PM, Ojinaga, Weather by CustomWeather, © 2014

Note: Actual official high and low records may vary slightly from our data, if they occured in-between our weather recording intervals... More about our weather records

Advertising

Ojinaga weather history for previous 24 hours

 ConditionsComfort  
Time TempWeatherWind HumidityBarometerVisibility
4:35 PM
Jan 28
70 °FPartly sunny.9 mph40%30.16 "Hg10 mi
4:15 PM72 °FPartly sunny.12 mph38%30.16 "Hg10 mi
3:55 PM70 °FPartly sunny.10 mph40%30.17 "Hg10 mi
3:35 PM70 °FPassing clouds.10 mph40%30.17 "Hg10 mi
3:15 PM70 °FPassing clouds.10 mph40%30.18 "Hg10 mi
2:35 PM70 °FSunny.12 mph40%30.18 "Hg10 mi
2:15 PM72 °FPassing clouds.9 mph41%30.18 "Hg10 mi
1:55 PM73 °FScattered clouds.10 mph38%30.19 "Hg10 mi
1:35 PM73 °FScattered clouds.9 mph38%30.19 "Hg10 mi
12:55 PM72 °FPassing clouds.7 mph41%30.21 "Hg10 mi
12:35 PM72 °FSunny.10 mph41%30.21 "Hg10 mi
12:15 PM72 °FSunny.9 mph41%30.22 "Hg10 mi
11:55 AM72 °FSunny.7 mph41%30.24 "Hg10 mi
11:35 AM70 °FSunny.8 mph43%30.25 "Hg10 mi
11:15 AM70 °FSunny.7 mph43%30.26 "Hg10 mi
10:55 AM68 °FSunny.7 mph46%30.27 "Hg10 mi
10:35 AM66 °FSunny.7 mph49%30.28 "Hg10 mi
10:15 AM64 °FSunny.6 mph52%30.29 "Hg10 mi
9:55 AM63 °FSunny.5 mph56%30.29 "Hg10 mi
9:35 AM61 °FSunny.3 mph59%30.29 "Hg10 mi
9:15 AM59 °FSunny.No wind63%30.29 "Hg10 mi
8:55 AM55 °FSunny.No wind72%30.29 "Hg10 mi
8:35 AM54 °FSunny.No wind77%30.29 "Hg10 mi
8:15 AM48 °FSunny.No wind94%30.28 "Hg10 mi
7:55 AM45 °FSunny.3 mph93%30.28 "Hg10 mi
7:35 AM39 °FSunny.5 mph93%30.28 "Hg10 mi
7:15 AM37 °FSunny.5 mph93%30.27 "Hg10 mi
6:55 AM36 °FSunny.6 mph93%30.27 "Hg10 mi
6:35 AM36 °FClear.3 mph100%30.27 "Hg10 mi
6:15 AM36 °FClear.5 mph93%30.27 "Hg10 mi
5:55 AM36 °FClear.3 mph93%30.27 "Hg10 mi
5:35 AM36 °FClear.5 mph93%30.27 "Hg10 mi
5:15 AM36 °FClear.5 mph87%30.25 "Hg10 mi
4:55 AM36 °FClear.5 mph93%30.25 "Hg10 mi
4:35 AM36 °FClear.3 mph93%30.24 "Hg10 mi
4:15 AM37 °FClear.3 mph93%30.24 "Hg10 mi
3:55 AM39 °FClear.5 mph93%30.24 "Hg10 mi
3:35 AM37 °FClear.5 mph93%30.24 "Hg10 mi
3:15 AM37 °FClear.5 mph93%30.24 "Hg10 mi
2:55 AM37 °FClear.7 mph93%30.25 "Hg10 mi
2:35 AM36 °FClear.6 mph93%30.24 "Hg10 mi
2:15 AM37 °FClear.7 mph87%30.25 "Hg10 mi
1:55 AM37 °FClear.5 mph93%30.26 "Hg10 mi
1:35 AM39 °FClear.5 mph87%30.26 "Hg10 mi
1:15 AM39 °FClear.5 mph93%30.26 "Hg10 mi
12:55 AM39 °FClear.7 mph93%30.26 "Hg10 mi
12:35 AM39 °FClear.9 mph93%30.26 "Hg10 mi
12:15 AM39 °FClear.10 mph93%30.27 "Hg10 mi
11:55 PM
Jan 27
39 °FClear.7 mph93%30.27 "Hg10 mi
11:35 PM39 °FClear.6 mph87%30.27 "Hg10 mi
11:15 PM39 °FClear.6 mph93%30.28 "Hg10 mi
10:55 PM39 °FClear.5 mph93%30.28 "Hg10 mi
10:35 PM39 °FClear.3 mph93%30.28 "Hg10 mi
10:15 PM39 °FClear.3 mph93%30.28 "Hg10 mi
9:55 PM39 °FClear.3 mph93%30.28 "Hg10 mi
9:35 PM39 °FClear.3 mph87%30.28 "Hg10 mi
9:15 PM43 °FClear.No wind81%30.28 "Hg10 mi
8:55 PM43 °FClear.3 mph81%30.28 "Hg10 mi
8:35 PM45 °FClear.5 mph81%30.28 "Hg10 mi
7:55 PM45 °FClear.7 mph81%30.27 "Hg10 mi
7:35 PM48 °FClear.6 mph76%30.28 "Hg10 mi
7:15 PM50 °FClear.No wind67%30.28 "Hg10 mi
6:55 PM52 °FClear.3 mph67%30.28 "Hg10 mi
6:35 PM52 °FClear.No wind62%30.28 "Hg10 mi
6:15 PM57 °FClear.3 mph59%30.28 "Hg10 mi
5:55 PM57 °FClear.6 mph59%30.27 "Hg10 mi
5:35 PM61 °FClear.8 mph52%30.27 "Hg10 mi
5:15 PM64 °FSunny.6 mph49%30.27 "Hg10 mi
Weather by CustomWeather, © 2014

See weather overviewHow to use our weather pages